Flag for Switzerland Weather past 2 weeks in Affoltern am Albis, Zurich, Switzerland

Now
54 °F

Cool.


Feels Like: 54 °F
Forecast: 38 / 57 °F
Wind: 3 mph from North

Location: Zurich Town / Ville.

Current Time: Sep 22, 2014 at 2:33:19 PM

Latest Report: Sep 22, 2014 at 1:00 PM


Visibility: N/A

Pressure: 30.14 "Hg

Humidity: 71%

Dew point: 45 °F

Location of Affoltern am AlbisLocation

Historic Weather in Affoltern am Albis — Graph

°F

Affoltern am Albis temperature yesterday

Maximum temperature yesterday: 68 °F (at 1:00 PM)
Minimum temperature yesterday: 56 °F (at 10:00 PM)
Average temperature yesterday: 60 °F

Past Weeks' High & Low Weather Summary

 TemperatureHumidityPressure
High80 °F (Sep 8, 3:00 PM)100% (Sep 16, 7:00 AM)30.16 "Hg (Sep 16, 7:00 AM)
Low49 °F (Sep 12, 6:00 AM)47% (Sep 7, 4:00 PM)29.81 "Hg (Sep 17, 5:00 PM)
Average61 °F83%29.99 "Hg
* Reported Sep 7 1:00 PM — Sep 22 1:00 PM, Affoltern am Albis, Weather by CustomWeather, © 2014

Note: Actual official high and low records may vary slightly from our data, if they occured in-between our weather recording intervals... More about our weather records

Advertising

Affoltern am Albis weather history for previous 24 hours

 ConditionsComfort  
Time TempWeatherWind HumidityBarometerVisibility
1:00 PM
Sep 22
54 °FCool.3 mph71%30.14 "HgN/A
12:00 PM54 °FCool.2 mph76%30.14 "HgN/A
11:00 AM54 °FCool.3 mph90%30.15 "HgN/A
10:00 AM53 °FCool.2 mph89%30.15 "HgN/A
9:00 AM52 °FCool.2 mph91%30.15 "HgN/A
8:00 AM51 °FCool.5 mph96%30.15 "HgN/A
7:00 AM51 °FCool.2 mph96%30.14 "HgN/A
6:00 AM51 °FCool.3 mph96%30.12 "HgN/A
5:00 AM53 °FCool.3 mph94%30.11 "HgN/A
4:00 AM53 °FCool.3 mph92%30.11 "HgN/A
3:00 AM53 °FCool.2 mph95%30.11 "HgN/A
2:00 AM54 °FCool.3 mph94%30.11 "HgN/A
1:00 AM54 °FCool.3 mph95%30.10 "HgN/A
12:00 AM55 °FCool.2 mph96%30.09 "HgN/A
11:00 PM
Sep 21
56 °FCool.5 mph95%30.07 "HgN/A
10:00 PM56 °FCool.5 mph96%30.07 "HgN/A
9:00 PM58 °FCool.6 mph96%30.04 "HgN/A
8:00 PM58 °FOvercast.9 mph96%30.01 "HgN/A
7:00 PM59 °FCool.3 mph94%30.00 "HgN/A
6:00 PM60 °FCool.6 mph93%30.01 "HgN/A
5:00 PM62 °FCool.2 mph92%29.99 "HgN/A
4:00 PM62 °FCool.2 mph92%29.99 "HgN/A
3:00 PM60 °FCool.2 mph94%30.01 "HgN/A
2:00 PM57 °FPartly sunny.9 mph95%30.03 "HgN/A
Weather by CustomWeather, © 2014

See weather overviewHow to use our weather pages